Time,TemperatureF,DewpointF,PressureIn,WindDirection,WindDirectionDegrees,WindSpeedMPH,WindSpeedGustMPH,Humidity,HourlyPrecipIn,Conditions,Clouds,dailyrainin,SolarRadiationWatts/m^2,SoftwareType,DateUTC
2013-04-15 00:01:00,32.6,23.9,30.75,NNW,342,14.0,19.0,70,0.00,,,0.00,0.00,VWS V14.00,2013-04-15 06:01:00,
2013-04-15 00:06:00,32.4,23.4,30.76,NNW,335,17.0,20.0,69,0.00,,,0.00,0.00,VWS V14.00,2013-04-15 06:06:00,
2013-04-15 00:11:00,32.1,23.1,30.76,NNW,338,16.0,23.0,69,0.00,,,0.00,0.00,VWS V14.00,2013-04-15 06:11:00,
2013-04-15 00:16:00,31.9,23.6,30.76,North,349,7.0,23.0,71,0.00,,,0.00,0.00,VWS V14.00,2013-04-15 06:16:00,
2013-04-15 00:20:00,31.7,23.7,30.76,NNW,348,17.0,18.0,72,0.00,,,0.00,0.00,VWS V14.00,2013-04-15 06:20:00,
2013-04-15 00:26:00,31.5,23.5,30.76,NNW,347,13.0,21.0,72,0.00,,,0.00,0.00,VWS V14.00,2013-04-15 06:26:00,
2013-04-15 00:31:00,31.3,22.7,30.77,North,355,15.0,21.0,70,0.00,,,0.00,0.00,VWS V14.00,2013-04-15 06:31:00,
2013-04-15 00:36:00,31.2,22.6,30.77,NNW,330,10.0,14.0,70,0.00,,,0.00,0.00,VWS V14.00,2013-04-15 06:36:00,
2013-04-15 00:41:00,31.2,21.9,30.78,NNW,348,14.0,19.0,68,0.00,,,0.00,0.00,VWS V14.00,2013-04-15 06:41:00,
2013-04-15 00:46:00,31.2,21.5,30.77,NW,318,16.0,19.0,67,0.00,,,0.00,0.00,VWS V14.00,2013-04-15 06:46:00,
2013-04-15 00:51:00,31.1,21.1,30.77,NNW,338,15.0,19.0,66,0.00,,,0.00,0.00,VWS V14.00,2013-04-15 06:51:00,
2013-04-15 00:56:00,31.1,20.7,30.77,North,355,18.0,19.0,65,0.00,,,0.00,0.00,VWS V14.00,2013-04-15 06:56:00,
2013-04-15 01:01:00,31.0,20.6,30.77,North,349,18.0,20.0,65,0.00,,,0.00,0.00,VWS V14.00,2013-04-15 07:01:00,
2013-04-15 01:41:00,29.9,17.7,30.79,North,355,14.0,20.0,60,0.00,,,0.00,0.00,VWS V14.00,2013-04-15 07:41:00,
2013-04-15 01:47:00,29.7,17.5,30.80,NNW,344,16.0,20.0,60,0.00,,,0.00,0.00,VWS V14.00,2013-04-15 07:47:00,
2013-04-15 01:48:00,29.7,17.1,30.79,North,355,12.0,22.0,59,0.00,,,0.00,0.00,VWS V14.00,2013-04-15 07:48:00,
2013-04-15 01:51:00,29.6,17.0,30.80,North,360,11.0,17.0,59,0.00,,,0.00,0.00,VWS V14.00,2013-04-15 07:51:00,
2013-04-15 01:56:00,29.4,16.9,30.81,North,350,13.0,19.0,59,0.00,,,0.00,0.00,VWS V14.00,2013-04-15 07:56:00,
2013-04-15 02:01:00,29.1,17.0,30.81,NNW,344,12.0,19.0,60,0.00,,,0.00,0.00,VWS V14.00,2013-04-15 08:01:00,
2013-04-15 02:06:00,28.8,16.7,30.81,North,350,10.0,17.0,60,0.00,,,0.00,0.00,VWS V14.00,2013-04-15 08:06:00,
2013-04-15 02:11:00,28.6,16.5,30.76,North,355,13.0,18.0,60,0.00,,,0.00,0.00,VWS V14.00,2013-04-15 08:11:00,
2013-04-15 02:16:00,28.3,16.2,30.77,North,349,18.0,19.0,60,0.00,,,0.00,0.00,VWS V14.00,2013-04-15 08:16:00,
2013-04-15 02:21:00,28.1,16.0,30.78,North,5,15.0,16.0,60,0.00,,,0.00,0.00,VWS V14.00,2013-04-15 08:21:00,
2013-04-15 02:26:00,27.9,16.2,30.78,North,355,9.0,18.0,61,0.00,,,0.00,0.00,VWS V14.00,2013-04-15 08:26:00,
2013-04-15 02:31:00,27.6,15.9,30.78,NNW,346,10.0,18.0,61,0.00,,,0.00,0.00,VWS V14.00,2013-04-15 08:31:00,
2013-04-15 02:35:00,27.5,15.4,30.78,NNW,346,14.0,20.0,60,0.00,,,0.00,0.00,VWS V14.00,2013-04-15 08:35:00,
2013-04-15 02:40:00,27.6,15.2,30.78,NNW,346,12.0,18.0,59,0.00,,,0.00,0.00,VWS V14.00,2013-04-15 08:40:00,
2013-04-15 02:45:00,27.5,15.4,30.78,North,355,14.0,18.0,60,0.00,,,0.00,0.00,VWS V14.00,2013-04-15 08:45:00,
2013-04-15 02:50:00,27.2,15.2,30.78,North,360,6.0,18.0,60,0.00,,,0.00,0.00,VWS V14.00,2013-04-15 08:50:00,
2013-04-15 02:55:00,27.1,15.1,30.78,North,360,10.0,13.0,60,0.00,,,0.00,0.00,VWS V14.00,2013-04-15 08:55:00,
2013-04-15 03:00:00,27.1,15.1,30.78,North,351,7.0,13.0,60,0.00,,,0.00,0.00,VWS V14.00,2013-04-15 09:00:00,
2013-04-15 03:05:00,27.1,15.1,30.79,North,350,14.0,15.0,60,0.00,,,0.00,0.00,VWS V14.00,2013-04-15 09:05:00,
2013-04-15 03:10:00,27.2,15.2,30.81,North,355,10.0,15.0,60,0.00,,,0.00,0.00,VWS V14.00,2013-04-15 09:10:00,
2013-04-15 03:15:00,27.2,14.8,30.81,North,355,9.0,17.0,59,0.00,,,0.00,0.00,VWS V14.00,2013-04-15 09:15:00,
2013-04-15 03:20:00,27.2,14.8,30.81,North,355,13.0,17.0,59,0.00,,,0.00,0.00,VWS V14.00,2013-04-15 09:20:00,
2013-04-15 03:25:00,27.2,14.8,30.81,North,355,11.0,14.0,59,0.00,,,0.00,0.00,VWS V14.00,2013-04-15 09:25:00,
2013-04-15 03:30:00,27.3,14.5,30.81,North,9,6.0,15.0,58,0.00,,,0.00,0.00,VWS V14.00,2013-04-15 09:30:00,
2013-04-15 03:35:00,27.4,14.6,30.81,North,351,7.0,15.0,58,0.00,,,0.00,0.00,VWS V14.00,2013-04-15 09:35:00,
2013-04-15 03:40:00,27.4,14.2,30.81,NE,34,3.0,17.0,57,0.00,,,0.00,0.00,VWS V14.00,2013-04-15 09:40:00,
2013-04-15 03:45:00,27.4,14.2,30.81,North,350,6.0,17.0,57,0.00,,,0.00,0.00,VWS V14.00,2013-04-15 09:45:00,
2013-04-15 03:50:00,27.4,14.2,30.81,North,355,14.0,17.0,57,0.00,,,0.00,0.00,VWS V14.00,2013-04-15 09:50:00,
2013-04-15 03:55:00,27.3,14.5,30.81,North,360,2.0,14.0,58,0.00,,,0.00,0.00,VWS V14.00,2013-04-15 09:55:00,
2013-04-15 04:00:00,27.3,14.5,30.81,North,355,1.0,14.0,58,0.00,,,0.00,0.00,VWS V14.00,2013-04-15 10:00:00,
2013-04-15 04:05:00,27.2,14.0,30.81,NNE,29,2.0,14.0,57,0.00,,,0.00,0.00,VWS V14.00,2013-04-15 10:05:00,
2013-04-15 04:10:00,27.2,14.0,30.83,North,350,1.0,9.0,57,0.00,,,0.00,0.00,VWS V14.00,2013-04-15 10:10:00,
2013-04-15 04:15:00,27.2,14.0,30.83,North,360,9.0,16.0,57,0.00,,,0.00,0.00,VWS V14.00,2013-04-15 10:15:00,
2013-04-15 04:20:00,27.2,14.0,30.83,North,355,10.0,16.0,57,0.00,,,0.00,0.00,VWS V14.00,2013-04-15 10:20:00,
2013-04-15 04:25:00,27.1,14.3,30.83,North,360,3.0,14.0,58,0.00,,,0.00,0.00,VWS V14.00,2013-04-15 10:25:00,
2013-04-15 04:30:00,27.0,14.2,30.83,North,355,2.0,14.0,58,0.00,,,0.00,0.00,VWS V14.00,2013-04-15 10:30:00,
2013-04-15 04:35:00,26.9,14.1,30.83,North,360,5.0,14.0,58,0.00,,,0.00,0.00,VWS V14.00,2013-04-15 10:35:00,
2013-04-15 04:40:00,26.9,14.1,30.83,NNE,27,3.0,6.0,58,0.00,,,0.00,0.00,VWS V14.00,2013-04-15 10:40:00,
2013-04-15 04:45:00,26.9,14.1,30.83,NNE,15,3.0,10.0,58,0.00,,,0.00,0.00,VWS V14.00,2013-04-15 10:45:00,
2013-04-15 04:50:00,26.8,14.0,30.84,NNE,22,2.0,10.0,58,0.00,,,0.00,0.00,VWS V14.00,2013-04-15 10:50:00,
2013-04-15 04:55:00,26.8,14.0,30.84,NNE,27,7.0,9.0,58,0.00,,,0.00,0.00,VWS V14.00,2013-04-15 10:55:00,
2013-04-15 05:00:00,26.7,13.9,30.84,NNE,24,3.0,10.0,58,0.00,,,0.00,0.00,VWS V14.00,2013-04-15 11:00:00,
2013-04-15 05:05:00,26.7,13.9,30.83,NE,40,3.0,3.0,58,0.00,,,0.00,0.00,VWS V14.00,2013-04-15 11:05:00,
2013-04-15 05:10:00,26.6,13.8,30.83,North,360,3.0,9.0,58,0.00,,,0.00,0.00,VWS V14.00,2013-04-15 11:10:00,
2013-04-15 05:15:00,26.5,13.7,30.83,NNW,338,2.0,10.0,58,0.00,,,0.00,0.00,VWS V14.00,2013-04-15 11:15:00,
2013-04-15 05:20:00,26.4,13.2,30.84,NNE,28,5.0,6.0,57,0.00,,,0.00,0.00,VWS V14.00,2013-04-15 11:20:00,
2013-04-15 05:25:00,26.4,13.6,30.84,NNE,24,5.0,9.0,58,0.00,,,0.00,0.00,VWS V14.00,2013-04-15 11:25:00,
2013-04-15 05:30:00,26.4,13.6,30.85,North,9,4.0,9.0,58,0.00,,,0.00,0.00,VWS V14.00,2013-04-15 11:30:00,
2013-04-15 05:35:00,26.4,13.6,30.85,NNE,21,1.0,1.0,58,0.00,,,0.00,0.00,VWS V14.00,2013-04-15 11:35:00,
2013-04-15 05:40:00,26.3,13.6,30.85,NNE,22,2.0,3.0,58,0.00,,,0.00,0.00,VWS V14.00,2013-04-15 11:40:00,
2013-04-15 05:45:00,26.2,13.4,30.85,NNE,22,1.0,4.0,58,0.00,,,0.00,0.00,VWS V14.00,2013-04-15 11:45:00,
2013-04-15 05:50:00,26.2,13.4,30.85,NNE,15,3.0,7.0,58,0.00,,,0.00,0.00,VWS V14.00,2013-04-15 11:50:00,
2013-04-15 05:55:00,26.2,13.4,30.85,North,355,0.0,7.0,58,0.00,,,0.00,0.00,VWS V14.00,2013-04-15 11:55:00,
2013-04-15 06:00:00,26.1,13.4,30.85,NNW,340,10.0,10.0,58,0.00,,,0.00,0.00,VWS V14.00,2013-04-15 12:00:00,
2013-04-15 06:05:00,26.0,13.3,30.86,NNE,14,3.0,4.0,58,0.00,,,0.00,0.00,VWS V14.00,2013-04-15 12:05:00,
2013-04-15 06:10:00,25.9,13.2,30.86,NNE,19,2.0,7.0,58,0.00,,,0.00,0.00,VWS V14.00,2013-04-15 12:10:00,
2013-04-15 06:15:00,26.0,13.6,30.86,NNE,23,2.0,7.0,59,0.00,,,0.00,0.00,VWS V14.00,2013-04-15 12:15:00,
2013-04-15 06:20:00,26.1,13.8,30.86,NE,45,3.0,5.0,59,0.00,,,0.00,0.00,VWS V14.00,2013-04-15 12:20:00,
2013-04-15 06:25:00,26.2,13.4,30.86,NE,37,4.0,10.0,58,0.00,,,0.00,0.00,VWS V14.00,2013-04-15 12:25:00,
2013-04-15 06:30:00,26.2,13.4,30.86,NNE,30,2.0,10.0,58,0.00,,,0.00,0.00,VWS V14.00,2013-04-15 12:30:00,
2013-04-15 06:35:00,26.1,13.4,30.86,NNE,30,2.0,3.0,58,0.00,,,0.00,0.00,VWS V14.00,2013-04-15 12:35:00,
2013-04-15 06:40:00,26.0,13.3,30.86,NNE,29,1.0,5.0,58,0.00,,,0.00,0.00,VWS V14.00,2013-04-15 12:40:00,
2013-04-15 06:45:00,25.8,13.1,30.87,NNE,27,0.0,5.0,58,0.00,,,0.00,0.00,VWS V14.00,2013-04-15 12:45:00,
2013-04-15 06:50:00,25.6,12.9,30.87,NE,55,5.0,5.0,58,0.00,,,0.00,0.00,VWS V14.00,2013-04-15 12:50:00,
2013-04-15 06:55:00,25.4,13.1,30.87,North,10,0.0,6.0,59,0.00,,,0.00,9.00,VWS V14.00,2013-04-15 12:55:00,
2013-04-15 07:00:00,25.4,13.1,30.88,NNE,19,1.0,6.0,59,0.00,,,0.00,12.00,VWS V14.00,2013-04-15 13:00:00,
2013-04-15 07:05:00,25.4,12.7,30.90,North,9,0.0,0.0,58,0.00,,,0.00,18.00,VWS V14.00,2013-04-15 13:05:00,
2013-04-15 07:10:00,25.4,13.1,30.90,North,9,0.0,3.0,59,0.00,,,0.00,21.00,VWS V14.00,2013-04-15 13:10:00,
2013-04-15 07:15:00,25.4,13.1,30.90,North,9,0.0,3.0,59,0.00,,,0.00,25.00,VWS V14.00,2013-04-15 13:15:00,
2013-04-15 07:20:00,25.4,13.1,30.90,North,9,0.0,0.0,59,0.00,,,0.00,28.00,VWS V14.00,2013-04-15 13:20:00,
2013-04-15 07:25:00,25.4,13.1,30.90,North,9,0.0,3.0,59,0.00,,,0.00,30.00,VWS V14.00,2013-04-15 13:25:00,
2013-04-15 07:30:00,25.4,13.1,30.91,North,9,0.0,3.0,59,0.00,,,0.00,28.00,VWS V14.00,2013-04-15 13:30:00,
2013-04-15 07:35:00,25.4,13.1,30.91,North,9,0.0,2.0,59,0.00,,,0.00,37.00,VWS V14.00,2013-04-15 13:35:00,
2013-04-15 07:40:00,25.4,13.1,30.91,North,360,2.0,5.0,59,0.00,,,0.00,42.00,VWS V14.00,2013-04-15 13:40:00,
2013-04-15 07:45:00,25.5,13.6,30.91,NNW,333,6.0,6.0,60,0.00,,,0.00,56.00,VWS V14.00,2013-04-15 13:45:00,
2013-04-15 07:50:00,25.6,13.3,30.91,North,355,5.0,7.0,59,0.00,,,0.00,54.00,VWS V14.00,2013-04-15 13:50:00,
2013-04-15 07:55:00,25.7,13.4,30.91,North,355,9.0,13.0,59,0.00,,,0.00,49.00,VWS V14.00,2013-04-15 13:55:00,
2013-04-15 08:00:00,25.8,13.5,30.91,North,355,10.0,14.0,59,0.00,,,0.00,56.00,VWS V14.00,2013-04-15 14:00:00,
2013-04-15 08:05:00,26.0,13.6,30.91,North,360,6.0,7.0,59,0.00,,,0.00,67.00,VWS V14.00,2013-04-15 14:05:00,
2013-04-15 08:10:00,26.3,14.3,30.94,NE,41,2.0,10.0,60,0.00,,,0.00,77.00,VWS V14.00,2013-04-15 14:10:00,
2013-04-15 08:15:00,26.5,13.7,30.93,NE,42,3.0,10.0,58,0.00,,,0.00,86.00,VWS V14.00,2013-04-15 14:15:00,
2013-04-15 08:20:00,26.7,13.9,30.93,North,360,4.0,9.0,58,0.00,,,0.00,98.00,VWS V14.00,2013-04-15 14:20:00,
2013-04-15 08:25:00,26.8,13.6,30.93,NNE,24,6.0,9.0,57,0.00,,,0.00,111.00,VWS V14.00,2013-04-15 14:25:00,
2013-04-15 08:30:00,27.0,13.8,30.93,North,9,4.0,9.0,57,0.00,,,0.00,121.00,VWS V14.00,2013-04-15 14:30:00,
2013-04-15 08:35:00,27.3,14.1,30.93,NNE,15,2.0,3.0,57,0.00,,,0.00,141.00,VWS V14.00,2013-04-15 14:35:00,
2013-04-15 08:40:00,27.6,14.0,30.93,North,10,3.0,7.0,56,0.00,,,0.00,160.00,VWS V14.00,2013-04-15 14:40:00,
2013-04-15 08:45:00,28.0,13.9,30.93,NNW,342,3.0,13.0,55,0.00,,,0.00,163.00,VWS V14.00,2013-04-15 14:45:00,
2013-04-15 08:50:00,28.4,13.9,30.94,NNW,341,8.0,11.0,54,0.00,,,0.00,195.00,VWS V14.00,2013-04-15 14:50:00,
2013-04-15 08:56:00,28.9,13.9,30.93,North,5,4.0,13.0,53,0.00,,,0.00,239.00,VWS V14.00,2013-04-15 14:56:00,
2013-04-15 09:01:00,29.3,13.9,30.93,North,355,5.0,13.0,52,0.00,,,0.00,144.00,VWS V14.00,2013-04-15 15:01:00,
2013-04-15 09:07:00,29.4,14.0,30.93,NNE,25,5.0,7.0,52,0.00,,,0.00,183.00,VWS V14.00,2013-04-15 15:07:00,
2013-04-15 09:12:00,29.6,13.7,30.93,North,360,11.0,17.0,51,0.00,,,0.00,167.00,VWS V14.00,2013-04-15 15:12:00,
2013-04-15 09:17:00,29.8,13.9,30.93,North,349,11.0,18.0,51,0.00,,,0.00,209.00,VWS V14.00,2013-04-15 15:17:00,
2013-04-15 09:22:00,30.1,13.7,30.93,NNW,347,9.0,16.0,50,0.00,,,0.00,169.00,VWS V14.00,2013-04-15 15:22:00,
2013-04-15 09:27:00,30.3,13.9,30.93,North,355,13.0,16.0,50,0.00,,,0.00,193.00,VWS V14.00,2013-04-15 15:27:00,
2013-04-15 09:32:00,30.6,13.7,30.92,North,360,12.0,16.0,49,0.00,,,0.00,144.00,VWS V14.00,2013-04-15 15:32:00,
2013-04-15 09:37:00,30.8,13.9,30.92,North,355,11.0,17.0,49,0.00,,,0.00,172.00,VWS V14.00,2013-04-15 15:37:00,
2013-04-15 09:42:00,31.2,14.3,30.92,North,350,7.0,17.0,49,0.00,,,0.00,153.00,VWS V14.00,2013-04-15 15:42:00,
2013-04-15 09:47:00,31.5,14.6,30.91,NW,326,9.0,17.0,49,0.00,,,0.00,183.00,VWS V14.00,2013-04-15 15:47:00,
2013-04-15 09:52:00,31.7,14.3,30.91,North,355,11.0,16.0,48,0.00,,,0.00,181.00,VWS V14.00,2013-04-15 15:52:00,
2013-04-15 09:57:00,31.9,14.4,30.91,NNW,327,14.0,16.0,48,0.00,,,0.00,251.00,VWS V14.00,2013-04-15 15:57:00,
2013-04-15 10:02:00,31.9,14.4,30.91,WNW,299,10.0,17.0,48,0.00,,,0.00,374.00,VWS V14.00,2013-04-15 16:02:00,
2013-04-15 10:07:00,32.1,14.6,30.90,North,355,17.0,17.0,48,0.00,,,0.00,156.00,VWS V14.00,2013-04-15 16:07:00,
2013-04-15 10:12:00,32.3,14.8,30.90,North,355,14.0,18.0,48,0.00,,,0.00,427.00,VWS V14.00,2013-04-15 16:12:00,
2013-04-15 10:18:00,32.6,14.1,30.90,NNE,12,16.0,19.0,46,0.00,,,0.00,557.00,VWS V14.00,2013-04-15 16:18:00,
2013-04-15 10:23:00,32.9,14.4,30.90,North,360,11.0,18.0,46,0.00,,,0.00,554.00,VWS V14.00,2013-04-15 16:23:00,
2013-04-15 10:28:00,33.3,14.8,30.90,North,351,9.0,18.0,46,0.00,,,0.00,621.00,VWS V14.00,2013-04-15 16:28:00,
2013-04-15 10:33:00,33.5,14.4,30.89,NNW,339,12.0,18.0,45,0.00,,,0.00,598.00,VWS V14.00,2013-04-15 16:33:00,
2013-04-15 10:38:00,33.2,14.2,30.90,NNW,346,16.0,20.0,45,0.00,,,0.00,341.00,VWS V14.00,2013-04-15 16:38:00,
2013-04-15 10:43:00,33.3,14.3,30.90,North,350,12.0,20.0,45,0.00,,,0.00,663.00,VWS V14.00,2013-04-15 16:43:00,
2013-04-15 10:48:00,33.5,14.9,30.89,NNW,337,12.0,20.0,46,0.00,,,0.00,520.00,VWS V14.00,2013-04-15 16:48:00,
2013-04-15 10:53:00,33.9,16.3,30.89,NNW,336,10.0,16.0,48,0.00,,,0.00,712.00,VWS V14.00,2013-04-15 16:53:00,
2013-04-15 10:58:00,34.4,15.8,30.89,NW,322,14.0,19.0,46,0.00,,,0.00,694.00,VWS V14.00,2013-04-15 16:58:00,
2013-04-15 11:03:00,34.4,14.2,30.89,North,349,15.0,19.0,43,0.00,,,0.00,271.00,VWS V14.00,2013-04-15 17:03:00,
2013-04-15 11:08:00,34.3,15.2,30.90,NNW,346,15.0,17.0,45,0.00,,,0.00,717.00,VWS V14.00,2013-04-15 17:08:00,
2013-04-15 11:13:00,34.4,15.3,30.90,North,5,10.0,18.0,45,0.00,,,0.00,708.00,VWS V14.00,2013-04-15 17:13:00,
2013-04-15 11:18:00,35.2,16.0,30.90,NNW,340,10.0,18.0,45,0.00,,,0.00,802.00,VWS V14.00,2013-04-15 17:18:00,
2013-04-15 11:21:00,35.4,17.2,30.90,NNW,348,14.0,14.0,47,0.00,,,0.00,849.00,VWS V14.00,2013-04-15 17:21:00,
2013-04-15 11:25:00,35.7,15.9,30.89,NW,317,9.0,18.0,44,0.00,,,0.00,566.00,VWS V14.00,2013-04-15 17:25:00,
2013-04-15 11:30:00,35.4,15.1,30.90,NNW,340,11.0,18.0,43,0.00,,,0.00,680.00,VWS V14.00,2013-04-15 17:30:00,
2013-04-15 11:35:00,35.5,15.2,30.89,NNW,342,15.0,16.0,43,0.00,,,0.00,373.00,VWS V14.00,2013-04-15 17:35:00,
2013-04-15 11:40:00,35.4,15.7,30.90,North,11,10.0,19.0,44,0.00,,,0.00,545.00,VWS V14.00,2013-04-15 17:40:00,
2013-04-15 11:45:00,36.0,15.7,30.89,North,355,13.0,19.0,43,0.00,,,0.00,935.00,VWS V14.00,2013-04-15 17:45:00,
2013-04-15 11:50:00,36.1,15.8,30.88,North,355,10.0,11.0,43,0.00,,,0.00,504.00,VWS V14.00,2013-04-15 17:50:00,
2013-04-15 11:55:00,36.2,15.9,30.89,North,5,9.0,16.0,43,0.00,,,0.00,457.00,VWS V14.00,2013-04-15 17:55:00,
2013-04-15 12:00:00,36.3,15.4,30.88,North,360,15.0,18.0,42,0.00,,,0.00,946.00,VWS V14.00,2013-04-15 18:00:00,
2013-04-15 12:05:00,36.6,15.7,30.89,NNW,338,13.0,16.0,42,0.00,,,0.00,397.00,VWS V14.00,2013-04-15 18:05:00,
2013-04-15 12:10:00,36.1,16.3,30.90,NW,311,11.0,21.0,44,0.00,,,0.00,594.00,VWS V14.00,2013-04-15 18:10:00,
2013-04-15 12:15:00,36.4,16.0,30.90,NNW,348,9.0,21.0,43,0.00,,,0.00,534.00,VWS V14.00,2013-04-15 18:15:00,
2013-04-15 12:20:00,36.3,15.4,30.90,North,9,11.0,16.0,42,0.00,,,0.00,473.00,VWS V14.00,2013-04-15 18:20:00,
2013-04-15 12:25:00,36.4,16.6,30.89,NNW,346,15.0,20.0,44,0.00,,,0.00,963.00,VWS V14.00,2013-04-15 18:25:00,
2013-04-15 12:29:00,36.8,17.0,30.88,NW,325,11.0,20.0,44,0.00,,,0.00,543.00,VWS V14.00,2013-04-15 18:29:00,
2013-04-15 12:34:00,37.1,16.1,30.88,NNW,331,7.0,20.0,42,0.00,,,0.00,675.00,VWS V14.00,2013-04-15 18:34:00,
2013-04-15 12:39:00,37.1,15.6,30.88,NNW,338,14.0,20.0,41,0.00,,,0.00,626.00,VWS V14.00,2013-04-15 18:39:00,
2013-04-15 12:44:00,37.8,16.8,30.88,North,349,15.0,21.0,42,0.00,,,0.00,940.00,VWS V14.00,2013-04-15 18:44:00,
2013-04-15 12:49:00,37.8,16.8,30.87,NNW,330,20.0,21.0,42,0.00,,,0.00,489.00,VWS V14.00,2013-04-15 18:49:00,
2013-04-15 12:54:00,38.3,17.2,30.87,NW,319,16.0,23.0,42,0.00,,,0.00,1058.00,VWS V14.00,2013-04-15 18:54:00,
2013-04-15 12:59:00,38.5,15.7,30.86,North,350,19.0,24.0,39,0.00,,,0.00,564.00,VWS V14.00,2013-04-15 18:59:00,
2013-04-15 13:04:00,38.3,16.7,30.87,NW,325,16.0,24.0,41,0.00,,,0.00,571.00,VWS V14.00,2013-04-15 19:04:00,
2013-04-15 13:09:00,38.0,16.4,30.89,North,355,15.0,20.0,41,0.00,,,0.00,517.00,VWS V14.00,2013-04-15 19:09:00,
2013-04-15 13:14:00,37.9,15.8,30.88,NNW,334,16.0,20.0,40,0.00,,,0.00,438.00,VWS V14.00,2013-04-15 19:14:00,
2013-04-15 13:19:00,38.2,16.6,30.88,NNW,327,12.0,24.0,41,0.00,,,0.00,896.00,VWS V14.00,2013-04-15 19:19:00,
2013-04-15 13:24:00,38.7,16.5,30.87,NNW,331,13.0,19.0,40,0.00,,,0.00,656.00,VWS V14.00,2013-04-15 19:24:00,
2013-04-15 13:29:00,39.1,17.4,30.87,North,360,20.0,23.0,41,0.00,,,0.00,838.00,VWS V14.00,2013-04-15 19:29:00,
2013-04-15 13:34:00,38.8,16.0,30.87,NW,324,17.0,23.0,39,0.00,,,0.00,853.00,VWS V14.00,2013-04-15 19:34:00,
2013-04-15 13:39:00,38.8,16.6,30.87,NNW,333,15.0,23.0,40,0.00,,,0.00,715.00,VWS V14.00,2013-04-15 19:39:00,
2013-04-15 13:44:00,39.1,16.8,30.86,North,349,13.0,25.0,40,0.00,,,0.00,568.00,VWS V14.00,2013-04-15 19:44:00,
2013-04-15 13:50:00,38.9,16.1,30.87,NNW,348,13.0,25.0,39,0.00,,,0.00,496.00,VWS V14.00,2013-04-15 19:50:00,
2013-04-15 13:55:00,39.0,15.6,30.87,NNW,330,18.0,22.0,38,0.00,,,0.00,489.00,VWS V14.00,2013-04-15 19:55:00,
2013-04-15 13:58:00,38.8,16.0,30.86,NNW,328,14.0,22.0,39,0.00,,,0.00,512.00,VWS V14.00,2013-04-15 19:58:00,
2013-04-15 14:01:00,38.8,16.6,30.86,North,349,17.0,23.0,40,0.00,,,0.00,461.00,VWS V14.00,2013-04-15 20:01:00,
2013-04-15 14:02:00,38.8,16.0,30.86,North,360,14.0,24.0,39,0.00,,,0.00,445.00,VWS V14.00,2013-04-15 20:02:00,
2013-04-15 14:07:00,38.7,15.9,30.88,NNW,344,21.0,25.0,39,0.00,,,0.00,596.00,VWS V14.00,2013-04-15 20:07:00,
2013-04-15 14:12:00,39.2,16.3,30.87,NNW,329,11.0,25.0,39,0.00,,,0.00,492.00,VWS V14.00,2013-04-15 20:12:00,
2013-04-15 14:17:00,39.0,16.7,30.88,NNW,331,18.0,25.0,40,0.00,,,0.00,434.00,VWS V14.00,2013-04-15 20:17:00,
2013-04-15 14:22:00,39.3,17.0,30.87,NW,314,14.0,20.0,40,0.00,,,0.00,691.00,VWS V14.00,2013-04-15 20:22:00,
2013-04-15 14:27:00,39.6,16.1,30.87,NW,313,12.0,21.0,38,0.00,,,0.00,561.00,VWS V14.00,2013-04-15 20:27:00,
2013-04-15 14:32:00,39.9,16.4,30.87,North,355,19.0,25.0,38,0.00,,,0.00,550.00,VWS V14.00,2013-04-15 20:32:00,
2013-04-15 14:37:00,39.9,16.4,30.87,NW,319,16.0,22.0,38,0.00,,,0.00,693.00,VWS V14.00,2013-04-15 20:37:00,
2013-04-15 14:42:00,39.7,16.8,30.87,NNW,348,18.0,22.0,39,0.00,,,0.00,455.00,VWS V14.00,2013-04-15 20:42:00,
2013-04-15 14:47:00,39.8,16.3,30.87,NNW,345,12.0,23.0,38,0.00,,,0.00,592.00,VWS V14.00,2013-04-15 20:47:00,
2013-04-15 14:52:00,39.5,16.0,30.88,NNW,342,13.0,23.0,38,0.00,,,0.00,403.00,VWS V14.00,2013-04-15 20:52:00,
2013-04-15 14:57:00,39.3,17.0,30.87,NNW,330,20.0,23.0,40,0.00,,,0.00,758.00,VWS V14.00,2013-04-15 20:57:00,
2013-04-15 15:02:00,39.9,17.5,30.87,NNW,333,15.0,23.0,40,0.00,,,0.00,907.00,VWS V14.00,2013-04-15 21:02:00,
2013-04-15 15:07:00,40.0,15.9,30.88,NNW,336,15.0,23.0,37,0.00,,,0.00,448.00,VWS V14.00,2013-04-15 21:07:00,
2013-04-15 15:12:00,39.9,17.5,30.87,North,355,11.0,23.0,40,0.00,,,0.00,475.00,VWS V14.00,2013-04-15 21:12:00,
2013-04-15 15:17:00,40.0,17.1,30.87,NW,317,20.0,23.0,39,0.00,,,0.00,432.00,VWS V14.00,2013-04-15 21:17:00,
2013-04-15 15:22:00,40.3,16.7,30.87,NNW,335,15.0,21.0,38,0.00,,,0.00,543.00,VWS V14.00,2013-04-15 21:22:00,
2013-04-15 15:27:00,40.4,17.4,30.87,NNW,340,19.0,22.0,39,0.00,,,0.00,615.00,VWS V14.00,2013-04-15 21:27:00,
2013-04-15 15:32:00,40.7,17.7,30.86,NNW,344,18.0,22.0,39,0.00,,,0.00,717.00,VWS V14.00,2013-04-15 21:32:00,
2013-04-15 15:37:00,41.1,18.0,30.86,NNW,329,17.0,26.0,39,0.00,,,0.00,413.00,VWS V14.00,2013-04-15 21:37:00,
2013-04-15 15:42:00,40.6,17.0,30.86,NNW,346,14.0,26.0,38,0.00,,,0.00,346.00,VWS V14.00,2013-04-15 21:42:00,
2013-04-15 15:47:00,40.0,17.1,30.88,NW,326,18.0,26.0,39,0.00,,,0.00,311.00,VWS V14.00,2013-04-15 21:47:00,
2013-04-15 15:52:00,39.7,16.2,30.87,NNW,344,16.0,23.0,38,0.00,,,0.00,318.00,VWS V14.00,2013-04-15 21:52:00,
2013-04-15 15:57:00,39.4,17.1,30.88,NNW,330,11.0,25.0,40,0.00,,,0.00,341.00,VWS V14.00,2013-04-15 21:57:00,
2013-04-15 16:02:00,39.5,16.6,30.88,NNW,327,18.0,27.0,39,0.00,,,0.00,341.00,VWS V14.00,2013-04-15 22:02:00,
2013-04-15 16:07:00,39.7,17.4,30.88,North,351,14.0,22.0,40,0.00,,,0.00,348.00,VWS V14.00,2013-04-15 22:07:00,
2013-04-15 16:12:00,39.4,15.9,30.88,NNW,341,17.0,26.0,38,0.00,,,0.00,404.00,VWS V14.00,2013-04-15 22:12:00,
2013-04-15 16:17:00,39.6,17.9,30.88,NNW,346,22.0,26.0,41,0.00,,,0.00,323.00,VWS V14.00,2013-04-15 22:17:00,
2013-04-15 16:22:00,39.5,17.2,30.87,NNW,346,16.0,21.0,40,0.00,,,0.00,320.00,VWS V14.00,2013-04-15 22:22:00,
2013-04-15 16:27:00,39.5,16.6,30.88,NNW,344,19.0,25.0,39,0.00,,,0.00,378.00,VWS V14.00,2013-04-15 22:27:00,
2013-04-15 16:32:00,39.7,17.4,30.87,North,355,18.0,25.0,40,0.00,,,0.00,357.00,VWS V14.00,2013-04-15 22:32:00,
2013-04-15 16:37:00,39.6,16.1,30.88,NNW,340,20.0,25.0,38,0.00,,,0.00,346.00,VWS V14.00,2013-04-15 22:37:00,
2013-04-15 16:42:00,39.5,17.2,30.88,North,355,17.0,25.0,40,0.00,,,0.00,397.00,VWS V14.00,2013-04-15 22:42:00,
2013-04-15 16:47:00,40.0,17.1,30.88,NW,326,16.0,25.0,39,0.00,,,0.00,432.00,VWS V14.00,2013-04-15 22:47:00,
2013-04-15 16:52:00,40.1,17.7,30.88,NNW,338,19.0,27.0,40,0.00,,,0.00,404.00,VWS V14.00,2013-04-15 22:52:00,
2013-04-15 16:57:00,40.0,17.6,30.87,NNW,337,14.0,27.0,40,0.00,,,0.00,279.00,VWS V14.00,2013-04-15 22:57:00,
2013-04-15 17:02:00,39.9,17.0,30.87,NNW,342,16.0,27.0,39,0.00,,,0.00,302.00,VWS V14.00,2013-04-15 23:02:00,
2013-04-15 17:07:00,40.0,16.5,30.88,North,355,13.0,19.0,38,0.00,,,0.00,376.00,VWS V14.00,2013-04-15 23:07:00,
2013-04-15 17:12:00,40.2,18.4,30.88,NE,36,6.0,19.0,41,0.00,,,0.00,413.00,VWS V14.00,2013-04-15 23:12:00,
2013-04-15 17:17:00,40.4,18.0,30.88,NE,36,6.0,21.0,40,0.00,,,0.00,436.00,VWS V14.00,2013-04-15 23:17:00,
2013-04-15 17:22:00,40.5,18.1,30.88,NNE,12,11.0,17.0,40,0.00,,,0.00,292.00,VWS V14.00,2013-04-15 23:22:00,
2013-04-15 17:27:00,40.5,18.1,30.88,NNE,26,12.0,23.0,40,0.00,,,0.00,308.00,VWS V14.00,2013-04-15 23:27:00,
2013-04-15 17:32:00,40.5,16.9,30.88,North,360,14.0,23.0,38,0.00,,,0.00,278.00,VWS V14.00,2013-04-15 23:32:00,
2013-04-15 17:37:00,40.4,17.4,30.88,North,355,16.0,23.0,39,0.00,,,0.00,374.00,VWS V14.00,2013-04-15 23:37:00,
2013-04-15 17:42:00,40.5,16.9,30.89,NNW,346,12.0,23.0,38,0.00,,,0.00,327.00,VWS V14.00,2013-04-15 23:42:00,
2013-04-15 17:47:00,40.5,17.5,30.89,North,355,20.0,23.0,39,0.00,,,0.00,415.00,VWS V14.00,2013-04-15 23:47:00,
2013-04-15 17:52:00,40.5,16.9,30.89,North,5,15.0,20.0,38,0.00,,,0.00,246.00,VWS V14.00,2013-04-15 23:52:00,
2013-04-15 17:57:00,40.3,16.1,30.89,North,360,14.0,20.0,37,0.00,,,0.00,272.00,VWS V14.00,2013-04-15 23:57:00,
2013-04-15 18:02:00,40.1,17.1,30.89,North,5,11.0,20.0,39,0.00,,,0.00,332.00,VWS V14.00,2013-04-16 00:02:00,
2013-04-15 18:07:00,40.3,16.7,30.91,NNE,13,12.0,18.0,38,0.00,,,0.00,193.00,VWS V14.00,2013-04-16 00:07:00,
2013-04-15 18:12:00,39.8,16.9,30.91,North,355,16.0,18.0,39,0.00,,,0.00,204.00,VWS V14.00,2013-04-16 00:12:00,
2013-04-15 18:17:00,39.5,17.2,30.91,North,5,11.0,19.0,40,0.00,,,0.00,179.00,VWS V14.00,2013-04-16 00:17:00,
2013-04-15 18:22:00,39.2,18.0,30.92,North,360,7.0,13.0,42,0.00,,,0.00,339.00,VWS V14.00,2013-04-16 00:22:00,
2013-04-15 18:27:00,39.2,16.9,30.92,NE,36,14.0,20.0,40,0.00,,,0.00,220.00,VWS V14.00,2013-04-16 00:27:00,
2013-04-15 18:32:00,39.3,17.6,30.92,North,355,16.0,21.0,41,0.00,,,0.00,211.00,VWS V14.00,2013-04-16 00:32:00,
2013-04-15 18:37:00,39.3,16.4,30.92,North,9,4.0,18.0,39,0.00,,,0.00,244.00,VWS V14.00,2013-04-16 00:37:00,
2013-04-15 18:42:00,39.2,16.3,30.93,North,360,5.0,18.0,39,0.00,,,0.00,174.00,VWS V14.00,2013-04-16 00:42:00,
2013-04-15 18:47:00,39.2,15.7,30.93,North,355,12.0,19.0,38,0.00,,,0.00,127.00,VWS V14.00,2013-04-16 00:47:00,
2013-04-15 18:52:00,38.8,15.4,30.93,NNE,33,4.0,16.0,38,0.00,,,0.00,163.00,VWS V14.00,2013-04-16 00:52:00,
2013-04-15 18:57:00,38.6,15.2,30.93,NNW,344,11.0,16.0,38,0.00,,,0.00,100.00,VWS V14.00,2013-04-16 00:57:00,
2013-04-15 19:03:00,38.2,14.8,30.94,North,5,7.0,16.0,38,0.00,,,0.00,104.00,VWS V14.00,2013-04-16 01:03:00,
2013-04-15 19:08:00,37.9,15.2,30.94,North,360,6.0,13.0,39,0.00,,,0.00,121.00,VWS V14.00,2013-04-16 01:08:00,
2013-04-15 19:13:00,37.8,15.1,30.94,NNE,15,5.0,13.0,39,0.00,,,0.00,67.00,VWS V14.00,2013-04-16 01:13:00,
2013-04-15 19:18:00,37.7,14.4,30.94,NNE,23,6.0,13.0,38,0.00,,,0.00,62.00,VWS V14.00,2013-04-16 01:18:00,
2013-04-15 19:23:00,37.5,14.2,30.94,NNE,28,3.0,6.0,38,0.00,,,0.00,53.00,VWS V14.00,2013-04-16 01:23:00,
2013-04-15 19:28:00,37.3,13.4,30.95,NNE,24,2.0,6.0,37,0.00,,,0.00,53.00,VWS V14.00,2013-04-16 01:28:00,
2013-04-15 19:33:00,37.1,14.4,30.95,North,11,4.0,11.0,39,0.00,,,0.00,47.00,VWS V14.00,2013-04-16 01:33:00,
2013-04-15 19:38:00,36.9,14.3,30.95,North,360,2.0,4.0,39,0.00,,,0.00,40.00,VWS V14.00,2013-04-16 01:38:00,
2013-04-15 19:43:00,36.6,14.0,30.95,NNE,33,2.0,6.0,39,0.00,,,0.00,32.00,VWS V14.00,2013-04-16 01:43:00,
2013-04-15 19:48:00,36.4,13.8,30.96,NNE,17,2.0,6.0,39,0.00,,,0.00,39.00,VWS V14.00,2013-04-16 01:48:00,
2013-04-15 19:53:00,36.3,13.7,30.96,NNE,18,1.0,5.0,39,0.00,,,0.00,26.00,VWS V14.00,2013-04-16 01:53:00,
2013-04-15 19:58:00,36.1,14.1,30.96,NNE,22,4.0,5.0,40,0.00,,,0.00,35.00,VWS V14.00,2013-04-16 01:58:00,
2013-04-15 20:03:00,35.9,13.4,30.96,North,9,3.0,6.0,39,0.00,,,0.00,21.00,VWS V14.00,2013-04-16 02:03:00,
2013-04-15 20:08:00,35.6,13.1,30.95,NE,38,2.0,5.0,39,0.00,,,0.00,12.00,VWS V14.00,2013-04-16 02:08:00,
2013-04-15 20:13:00,35.3,12.8,30.95,NE,46,2.0,5.0,39,0.00,,,0.00,9.00,VWS V14.00,2013-04-16 02:13:00,
2013-04-15 20:18:00,35.0,13.1,30.96,NE,56,2.0,5.0,40,0.00,,,0.00,7.00,VWS V14.00,2013-04-16 02:18:00,
2013-04-15 20:23:00,34.6,12.8,30.96,NE,46,2.0,5.0,40,0.00,,,0.00,0.00,VWS V14.00,2013-04-16 02:23:00,
2013-04-15 20:28:00,34.4,12.6,30.97,ENE,65,4.0,7.0,40,0.00,,,0.00,0.00,VWS V14.00,2013-04-16 02:28:00,
2013-04-15 20:33:00,34.2,12.4,30.97,ENE,65,2.0,7.0,40,0.00,,,0.00,0.00,VWS V14.00,2013-04-16 02:33:00,
2013-04-15 20:38:00,34.0,12.2,30.98,NE,35,0.0,7.0,40,0.00,,,0.00,0.00,VWS V14.00,2013-04-16 02:38:00,
2013-04-15 20:43:00,33.9,12.7,30.98,NE,56,4.0,7.0,41,0.00,,,0.00,0.00,VWS V14.00,2013-04-16 02:43:00,
2013-04-15 20:48:00,33.7,12.5,30.99,NE,36,4.0,7.0,41,0.00,,,0.00,0.00,VWS V14.00,2013-04-16 02:48:00,
2013-04-15 20:53:00,33.5,12.3,30.99,ENE,59,3.0,9.0,41,0.00,,,0.00,0.00,VWS V14.00,2013-04-16 02:53:00,
2013-04-15 20:58:00,33.3,12.7,30.99,NNE,32,6.0,9.0,42,0.00,,,0.00,0.00,VWS V14.00,2013-04-16 02:58:00,
2013-04-15 21:03:00,33.2,12.6,30.99,ENE,59,6.0,9.0,42,0.00,,,0.00,0.00,VWS V14.00,2013-04-16 03:03:00,
2013-04-15 21:08:00,33.1,12.5,30.99,NE,45,3.0,7.0,42,0.00,,,0.00,0.00,VWS V14.00,2013-04-16 03:08:00,
2013-04-15 21:13:00,33.1,12.5,30.99,NE,43,4.0,7.0,42,0.00,,,0.00,0.00,VWS V14.00,2013-04-16 03:13:00,
2013-04-15 21:18:00,32.9,12.3,30.99,NE,35,3.0,7.0,42,0.00,,,0.00,0.00,VWS V14.00,2013-04-16 03:18:00,
2013-04-15 21:23:00,32.7,12.2,30.99,NE,34,2.0,8.0,42,0.00,,,0.00,0.00,VWS V14.00,2013-04-16 03:23:00,
2013-04-15 21:28:00,32.6,12.6,31.00,NNE,31,3.0,8.0,43,0.00,,,0.00,0.00,VWS V14.00,2013-04-16 03:28:00,
2013-04-15 21:33:00,32.4,12.4,31.00,NNE,32,0.0,10.0,43,0.00,,,0.00,0.00,VWS V14.00,2013-04-16 03:33:00,
2013-04-15 21:38:00,32.3,12.3,31.00,NNE,13,2.0,7.0,43,0.00,,,0.00,0.00,VWS V14.00,2013-04-16 03:38:00,
2013-04-15 21:43:00,32.1,12.7,31.01,NNE,13,0.0,7.0,44,0.00,,,0.00,0.00,VWS V14.00,2013-04-16 03:43:00,
2013-04-15 21:48:00,31.9,12.0,31.01,NNE,13,0.0,7.0,43,0.00,,,0.00,0.00,VWS V14.00,2013-04-16 03:48:00,
2013-04-15 21:53:00,31.8,11.9,31.01,NNE,13,0.0,0.0,43,0.00,,,0.00,0.00,VWS V14.00,2013-04-16 03:53:00,
2013-04-15 21:58:00,31.7,12.3,31.01,NNE,13,0.0,0.0,44,0.00,,,0.00,0.00,VWS V14.00,2013-04-16 03:58:00,
2013-04-15 22:00:00,31.7,12.8,31.01,NNE,13,1.0,1.0,45,0.00,,,0.00,0.00,VWS V14.00,2013-04-16 04:00:00,
2013-04-15 22:05:00,31.7,11.8,31.02,NNE,13,0.0,2.0,43,0.00,,,0.00,0.00,VWS V14.00,2013-04-16 04:05:00,
2013-04-15 22:10:00,31.7,12.3,31.01,NNE,13,0.0,0.0,44,0.00,,,0.00,0.00,VWS V14.00,2013-04-16 04:10:00,
2013-04-15 22:15:00,31.6,12.7,31.01,NNE,13,3.0,3.0,45,0.00,,,0.00,0.00,VWS V14.00,2013-04-16 04:15:00,
2013-04-15 22:20:00,31.5,13.1,31.02,WNW,295,3.0,6.0,46,0.00,,,0.00,0.00,VWS V14.00,2013-04-16 04:20:00,
2013-04-15 22:25:00,31.2,12.4,31.03,West,261,0.0,6.0,45,0.00,,,0.00,0.00,VWS V14.00,2013-04-16 04:25:00,
2013-04-15 22:30:00,31.0,12.7,31.03,WSW,248,3.0,9.0,46,0.00,,,0.00,0.00,VWS V14.00,2013-04-16 04:30:00,
2013-04-15 22:35:00,30.9,12.1,31.03,West,261,2.0,9.0,45,0.00,,,0.00,0.00,VWS V14.00,2013-04-16 04:35:00,
2013-04-15 22:40:00,31.0,12.7,31.03,NNW,331,7.0,11.0,46,0.00,,,0.00,0.00,VWS V14.00,2013-04-16 04:40:00,
2013-04-15 22:45:00,30.9,11.6,31.03,North,355,8.0,15.0,44,0.00,,,0.00,0.00,VWS V14.00,2013-04-16 04:45:00,
2013-04-15 22:50:00,31.0,12.2,31.04,NW,304,8.0,15.0,45,0.00,,,0.00,0.00,VWS V14.00,2013-04-16 04:50:00,
2013-04-15 22:55:00,30.8,13.4,31.04,NW,313,5.0,16.0,48,0.00,,,0.00,0.00,VWS V14.00,2013-04-16 04:55:00,
2013-04-15 23:00:00,30.7,11.9,31.03,NNW,329,6.0,16.0,45,0.00,,,0.00,0.00,VWS V14.00,2013-04-16 05:00:00,
2013-04-15 23:05:00,30.5,13.2,31.04,NNW,333,11.0,17.0,48,0.00,,,0.00,0.00,VWS V14.00,2013-04-16 05:05:00,
2013-04-15 23:10:00,30.1,13.3,31.03,North,351,13.0,17.0,49,0.00,,,0.00,0.00,VWS V14.00,2013-04-16 05:10:00,
2013-04-15 23:15:00,29.9,12.6,31.03,North,349,6.0,17.0,48,0.00,,,0.00,0.00,VWS V14.00,2013-04-16 05:15:00,
2013-04-15 23:20:00,29.8,12.5,31.03,NNW,348,7.0,17.0,48,0.00,,,0.00,0.00,VWS V14.00,2013-04-16 05:20:00,
2013-04-15 23:25:00,29.7,12.9,31.03,North,360,12.0,15.0,49,0.00,,,0.00,0.00,VWS V14.00,2013-04-16 05:25:00,
2013-04-15 23:30:00,29.6,12.3,31.03,NW,319,5.0,15.0,48,0.00,,,0.00,0.00,VWS V14.00,2013-04-16 05:30:00,
2013-04-15 23:35:00,29.2,12.4,31.03,NNW,342,5.0,15.0,49,0.00,,,0.00,0.00,VWS V14.00,2013-04-16 05:35:00,
2013-04-15 23:40:00,28.9,11.7,31.03,North,360,12.0,17.0,48,0.00,,,0.00,0.00,VWS V14.00,2013-04-16 05:40:00,
2013-04-15 23:45:00,29.2,12.0,31.03,NNW,348,5.0,17.0,48,0.00,,,0.00,0.00,VWS V14.00,2013-04-16 05:45:00,
2013-04-15 23:50:00,29.0,11.8,31.03,NNW,329,9.0,17.0,48,0.00,,,0.00,0.00,VWS V14.00,2013-04-16 05:50:00,
2013-04-15 23:55:00,28.7,12.4,31.03,NNW,348,8.0,13.0,50,0.00,,,0.00,0.00,VWS V14.00,2013-04-16 05:55:00,